Weather History for Rensselaer, IN

Change the Weather History Date:

Tuesday, May 14, 2013

  Actual Average (KVPZ) Record (KVPZ)
Temperature  
Mean Temperature 70 °F 59 °F  
Max Temperature 89 °F 70 °F 89 °F (2007)
Min Temperature 51 °F 47 °F 38 °F (2000)
Degree Days  
Heating Degree Days 0 8  
Month to date heating degree days 128  
Since 1 July heating degree days 6187  
Cooling Degree Days 5 1  
Month to date cooling degree days 10  
Year to date cooling degree days 15  
Growing Degree Days 20 (Base 50)    
Moisture  
Dew Point 45 °F    
Average Humidity 41    
Maximum Humidity 64    
Minimum Humidity 24    
Precipitation  
Precipitation 0.00 in 0.12 in 1.31 in (2001)
Month to date precipitation 1.78  
Year to date precipitation 10.96  
Sea Level Pressure  
Sea Level Pressure 29.84 in    
Wind  
Wind Speed 14 mph (SSW)    
Max Wind Speed 23 mph    
Max Gust Speed 32 mph    
Visibility 10 miles    
Events      
T = Trace of Precipitation, MM = Missing Value Source: NWS Daily Summary

Daily Weather History Graph

Daily Weather History Graph

Search for Another Location

Airport:

Trip Planner

Search our weather history database for the weather conditions in past years. The results will help you decide how hot, cold, wet, or windy it might be!

Date:

Astronomy

May. 14, 2013 Rise Set
Actual Time 5:31 AM CDT 7:58 PM CDT
Civil Twilight 5:00 AM CDT 8:30 PM CDT
Nautical Twilight 4:22 AM CDT 9:09 PM CDT
Astronomical Twilight 3:38 AM CDT 9:52 PM CDT
Moon 9:11 AM CDT (5/14) 11:45 PM CDT (5/14)
Length of Visible Light 15h 29m
Length of Day
14h 27m
Waxing Crescent, 19% of the Moon is Illuminated
May 14
Waxing Crescent
May 17
First Quarter
May 24
Full
May 31
Last Quarter
Jun 8
New

Hourly Weather History & Observations

Time (CDT) Temp. Heat Index Dew Point Humidity Pressure Visibility Wind Dir Wind Speed Gust Speed Precip Events Conditions
12:15 AM 55.4 °F - 33.8 °F 44% 30.06 in 10.0 mi South 6.9 mph - N/A   Scattered Clouds
12:35 AM 55.4 °F - 33.8 °F 44% 30.05 in 10.0 mi South 8.1 mph - N/A   Clear
12:55 AM 55.4 °F - 33.8 °F 44% 30.04 in 10.0 mi SSW 10.4 mph - N/A   Clear
1:15 AM 55.4 °F - 35.6 °F 47% 30.03 in 10.0 mi South 11.5 mph - N/A   Clear
1:35 AM 55.4 °F - 33.8 °F 44% 30.02 in 10.0 mi South 11.5 mph - N/A   Clear
1:55 AM 55.4 °F - 33.8 °F 44% 30.01 in 10.0 mi South 11.5 mph - N/A   Clear
2:15 AM 55.4 °F - 33.8 °F 44% 30.00 in 10.0 mi South 12.7 mph - N/A   Clear
2:35 AM 55.4 °F - 33.8 °F 44% 30.00 in 10.0 mi South 11.5 mph - N/A   Scattered Clouds
2:55 AM 53.6 °F - 33.8 °F 47% 29.99 in 10.0 mi South 11.5 mph - N/A   Scattered Clouds
3:15 AM 53.6 °F - 33.8 °F 47% 29.98 in 10.0 mi South 11.5 mph - N/A   Clear
3:35 AM 53.6 °F - 33.8 °F 47% 29.97 in 10.0 mi South 12.7 mph 19.6 mph N/A   Clear
3:55 AM 53.6 °F - 33.8 °F 47% 29.97 in 10.0 mi South 11.5 mph - N/A   Clear
4:15 AM 53.6 °F - 33.8 °F 47% 29.96 in 10.0 mi South 11.5 mph - N/A   Clear
4:35 AM 53.6 °F - 33.8 °F 47% 29.96 in 10.0 mi South 11.5 mph - N/A   Scattered Clouds
4:55 AM 51.8 °F - 33.8 °F 50% 29.95 in 10.0 mi South 11.5 mph - N/A   Scattered Clouds
5:15 AM 51.8 °F - 33.8 °F 50% 29.94 in 10.0 mi South 10.4 mph - N/A   Clear
5:35 AM 51.8 °F - 33.8 °F 50% 29.94 in 10.0 mi South 11.5 mph - N/A   Clear
5:55 AM 53.6 °F - 33.8 °F 47% 29.93 in 10.0 mi South 11.5 mph - N/A   Scattered Clouds
6:15 AM 53.6 °F - 33.8 °F 47% 29.93 in 10.0 mi South 11.5 mph - N/A   Scattered Clouds
6:35 AM 55.4 °F - 33.8 °F 44% 29.92 in 10.0 mi South 15.0 mph 24.2 mph N/A   Clear
6:55 AM 57.2 °F - 35.6 °F 44% 29.91 in 10.0 mi South 20.7 mph 27.6 mph N/A   Clear
7:15 AM 59.0 °F - 35.6 °F 42% 29.90 in 10.0 mi South 13.8 mph 27.6 mph N/A   Clear
7:35 AM 59.0 °F - 37.4 °F 45% 29.90 in 10.0 mi South 19.6 mph 25.3 mph N/A   Clear
7:55 AM 60.8 °F - 37.4 °F 42% 29.89 in 10.0 mi South 18.4 mph 25.3 mph N/A   Clear
8:15 AM 62.6 °F - 41.0 °F 45% 29.89 in 10.0 mi South 21.9 mph 29.9 mph N/A   Scattered Clouds
8:35 AM 64.4 °F - 41.0 °F 42% 29.87 in 10.0 mi South 23.0 mph 29.9 mph N/A   Scattered Clouds
8:55 AM 64.4 °F - 42.8 °F 45% 29.86 in 10.0 mi SSW 23.0 mph 32.2 mph N/A   Clear
9:15 AM 66.2 °F - 42.8 °F 43% 29.85 in 10.0 mi SSW 21.9 mph 28.8 mph N/A   Clear
9:35 AM 69.8 °F - 42.8 °F 38% 29.84 in 10.0 mi SSW 21.9 mph 28.8 mph N/A   Clear
9:55 AM 71.6 °F - 44.6 °F 38% 29.83 in 10.0 mi SSW 20.7 mph 28.8 mph N/A   Clear
10:15 AM 71.6 °F - 44.6 °F 38% 29.83 in 10.0 mi SSW 19.6 mph 29.9 mph N/A   Clear
10:35 AM 73.4 °F - 46.4 °F 38% 29.83 in 10.0 mi SW 20.7 mph 26.5 mph N/A   Clear
10:55 AM 75.2 °F - 46.4 °F 36% 29.83 in 10.0 mi SW 20.7 mph 25.3 mph N/A   Clear
11:15 AM 77.0 °F - 46.4 °F 34% 29.82 in 10.0 mi SW 21.9 mph 26.5 mph N/A   Clear
11:35 AM 77.0 °F - 48.2 °F 36% 29.81 in 10.0 mi SW 21.9 mph 26.5 mph N/A   Clear
11:55 AM 77.0 °F - 48.2 °F 36% 29.81 in 10.0 mi SW 20.7 mph 27.6 mph N/A   Clear
12:15 PM 78.8 °F - 50.0 °F 36% 29.81 in 10.0 mi SSW 17.3 mph 27.6 mph N/A   Clear
12:35 PM 80.6 °F - 50.0 °F 34% 29.81 in 10.0 mi SW 19.6 mph 27.6 mph N/A   Clear
12:55 PM 80.6 °F - 50.0 °F 34% 29.80 in 10.0 mi WSW 18.4 mph 26.5 mph N/A   Clear
1:15 PM 82.4 °F - 50.0 °F 32% 29.80 in 10.0 mi SW 19.6 mph 25.3 mph N/A   Clear
1:35 PM 82.4 °F - 50.0 °F 32% 29.79 in 10.0 mi SW 15.0 mph 25.3 mph N/A   Clear
1:55 PM 82.4 °F - 50.0 °F 32% 29.78 in 10.0 mi SSW 17.3 mph 24.2 mph N/A   Clear
2:15 PM 86.0 °F - 50.0 °F 29% 29.78 in 10.0 mi WSW 18.4 mph 24.2 mph N/A   Clear
2:35 PM 86.0 °F - 50.0 °F 29% 29.77 in 10.0 mi SW 17.3 mph 23.0 mph N/A   Clear
2:55 PM 87.8 °F - 50.0 °F 27% 29.77 in 10.0 mi SW 17.3 mph 23.0 mph N/A   Clear
3:15 PM 87.8 °F - 50.0 °F 27% 29.76 in 10.0 mi WSW 15.0 mph 24.2 mph N/A   Clear
3:35 PM 87.8 °F - 50.0 °F 27% 29.76 in 10.0 mi SW 18.4 mph 23.0 mph N/A   Clear
3:55 PM 89.6 °F - 48.2 °F 24% 29.76 in 10.0 mi WSW 16.1 mph 23.0 mph N/A   Clear
4:15 PM 89.6 °F - 50.0 °F 26% 29.76 in 10.0 mi SW 17.3 mph 23.0 mph N/A   Clear
4:35 PM 89.6 °F - 48.2 °F 24% 29.76 in 10.0 mi WSW 17.3 mph - N/A   Clear
4:55 PM 89.6 °F - 50.0 °F 26% 29.76 in 10.0 mi SW 16.1 mph - N/A   Scattered Clouds
5:15 PM 89.6 °F - 50.0 °F 26% 29.76 in 10.0 mi SW 13.8 mph - N/A   Clear
5:35 PM 89.6 °F - 50.0 °F 26% 29.75 in 10.0 mi SW 15.0 mph - N/A   Clear
5:55 PM 87.8 °F - 50.0 °F 27% 29.75 in 10.0 mi SW 17.3 mph - N/A   Clear
6:15 PM 87.8 °F - 51.8 °F 29% 29.74 in 10.0 mi SSW 13.8 mph - N/A   Clear
6:35 PM 86.0 °F - 51.8 °F 31% 29.74 in 10.0 mi SSW 13.8 mph 18.4 mph N/A   Clear
6:55 PM 86.0 °F 84.2 °F 53.6 °F 33% 29.74 in 10.0 mi SSW 15.0 mph 20.7 mph N/A   Clear
7:15 PM 82.4 °F 81.4 °F 53.6 °F 37% 29.74 in 10.0 mi SSW 13.8 mph - N/A   Clear
7:35 PM 82.4 °F 81.4 °F 53.6 °F 37% 29.73 in 10.0 mi SSW 15.0 mph - N/A   Clear
7:55 PM 80.6 °F 80.5 °F 55.4 °F 42% 29.73 in 10.0 mi SSW 15.0 mph - N/A   Clear
8:15 PM 78.8 °F - 55.4 °F 44% 29.74 in 10.0 mi South 16.1 mph 20.7 mph N/A   Clear
8:35 PM 78.8 °F - 55.4 °F 44% 29.74 in 10.0 mi South 12.7 mph 18.4 mph N/A   Clear
8:55 PM 77.0 °F - 55.4 °F 47% 29.74 in 10.0 mi South 16.1 mph 21.9 mph N/A   Clear
9:15 PM 77.0 °F - 55.4 °F 47% 29.75 in 10.0 mi South 13.8 mph - N/A   Clear
9:35 PM 77.0 °F - 57.2 °F 50% 29.75 in 10.0 mi South 16.1 mph - N/A   Clear
9:55 PM 75.2 °F - 57.2 °F 53% 29.76 in 10.0 mi SSW 16.1 mph - N/A   Clear
10:15 PM 75.2 °F - 57.2 °F 53% 29.75 in 10.0 mi South 13.8 mph 19.6 mph N/A   Clear
10:35 PM 75.2 °F - 57.2 °F 53% 29.75 in 10.0 mi South 15.0 mph 23.0 mph N/A   Clear
10:55 PM 73.4 °F - 57.2 °F 57% 29.74 in 10.0 mi SSW 18.4 mph 25.3 mph N/A   Clear
11:15 PM 73.4 °F - 59.0 °F 61% 29.74 in 10.0 mi South 16.1 mph 21.9 mph N/A   Clear
11:35 PM 71.6 °F - 59.0 °F 64% 29.75 in 10.0 mi SSW 10.4 mph - N/A   Clear
11:55 PM 71.6 °F - 59.0 °F 64% 29.76 in 10.0 mi SSW 9.2 mph - N/A   Clear